Simultaneous Nadir Overpasses (SNOs) Predictions

Prediction of SNOs between METOP-B and TERRA Satellite Orbit:

Table of predicted SNOs for the next 14.0 days since TLE Epoch: 6/16/2022
Index Date (METOP-B) Time (METOP-B) Lat,Lon (METOP-B) SZA (METOP-B ) Date (TERRA) Time (TERRA) Lat,Lon (TERRA) SZA (TERRA ) Distance(km) Time Diff (sec)
1 06/17/2022 00:49:19 -81.17, 28.54 119.97 06/17/2022 00:49:40 -81.18, 28.69 119.94 2.86 21
2 06/17/2022 01:39:58 81.19,-163.55 60.11 06/17/2022 01:39:06 81.19,-163.59 60.08 0.71 52
3 06/19/2022 20:23:42 -81.17, 94.89 120.05 06/19/2022 20:23:51 -81.16, 94.87 120.05 0.72 9
4 06/19/2022 21:14:21 81.19, -97.24 60.03 06/19/2022 21:13:16 81.19, -97.07 60.02 2.87 65
5 06/22/2022 15:07:24 81.16, -6.24 59.91 06/22/2022 15:08:34 81.16, -6.31 59.94 1.24 70
6 06/22/2022 15:58:04 -81.18, 161.56 120.03 06/22/2022 15:58:00 -81.18, 161.64 120.02 1.61 4
7 06/25/2022 10:41:46 81.16, 59.96 59.92 06/25/2022 10:42:43 81.15, 59.93 59.94 0.65 57
8 06/25/2022 11:32:26 -81.17,-132.20 120.02 06/25/2022 11:32:09 -81.17,-132.09 120.01 1.94 17
9 06/28/2022 06:16:08 81.16, 126.49 60.03 06/28/2022 06:16:52 81.15, 126.42 60.03 1.43 44



Historial Predications of SNOs between METOP-B and TERRA
